DLH772 EDDM-VTBS

Flight info

Callsign DLH772
Flight time N/A
Altitude 23000
Route KIRDI4N KIRDI DCT BUWOQ DCT OBFEZ/N0476F350 DCT STEIN DCT TEGRI DCT DINRO N743 UDROS DCT BAMUP DCT ROLIN/N0486F370 DCT TAGAR DCT BT DCT BARAD M747 SUBUT T923 ERLEV M11 RODAR A909 TUNEK B143 KRS A240 INRAK B449 RANAH L750 BIROS/N0481F390 L750 MERUN G452 LKN R460 CEA L507 IGONI WILLA1C
Aircraft A346/H-SDE2E3FGHIJ3J4J5M1RWXY/LB1D1

Departure

Time N/A
Airport Munich Airport (EDDM)

Arrival

Time 2026-05-05 22:02
Airport Suvarnabhumi Airport (VTBS)
Time Latitude Longitude Altitude Speed Heading
2026-05-05 21:45 13.87605 100.49371 23312 ft 437 kts 45°
2026-05-05 21:45 13.89801 100.51468 22641 ft 432 kts 41°
2026-05-05 21:45 13.92004 100.53573 21931 ft 428 kts 42°
2026-05-05 21:46 13.94176 100.55667 21205 ft 424 kts 42°
2026-05-05 21:46 13.96318 100.57734 20280 ft 426 kts 42°
2026-05-05 21:46 13.98454 100.59815 19519 ft 424 kts 42°
2026-05-05 21:46 14.00837 100.61602 18817 ft 419 kts 27°
2026-05-05 21:47 14.03515 100.62656 18185 ft 413 kts 13°
2026-05-05 21:47 14.06319 100.63261 17477 ft 408 kts 10°
2026-05-05 21:47 14.09123 100.63764 16738 ft 404 kts
2026-05-05 21:47 14.11861 100.64237 16042 ft 401 kts
2026-05-05 21:48 14.14609 100.64704 15354 ft 397 kts
2026-05-05 21:48 14.17328 100.65162 14681 ft 393 kts
2026-05-05 21:48 14.19986 100.65607 14040 ft 390 kts
2026-05-05 21:48 14.22661 100.66053 13363 ft 386 kts
2026-05-05 21:49 14.25308 100.66490 12658 ft 382 kts
2026-05-05 21:49 14.27932 100.66943 11969 ft 378 kts 13°
2026-05-05 21:49 14.30285 100.68003 11202 ft 375 kts 37°
2026-05-05 21:49 14.31995 100.69994 10591 ft 368 kts 60°
2026-05-05 21:50 14.32924 100.72420 9966 ft 362 kts 78°
2026-05-05 21:50 14.33070 100.74999 9289 ft 358 kts 96°
2026-05-05 21:50 14.32453 100.77415 8777 ft 349 kts 114°
2026-05-05 21:50 14.31175 100.79496 8401 ft 337 kts 131°
2026-05-05 21:51 14.29417 100.81030 8038 ft 327 kts 148°
2026-05-05 21:51 14.27356 100.81936 7708 ft 317 kts 165°
2026-05-05 21:51 14.25202 100.82278 7398 ft 307 kts 173°
2026-05-05 21:51 14.23130 100.82483 7095 ft 299 kts 174°
2026-05-05 21:52 14.19086 100.82870 6474 ft 284 kts 173°
2026-05-05 21:52 14.17137 100.83063 6166 ft 277 kts 173°
2026-05-05 21:52 14.15257 100.83255 5873 ft 270 kts 173°
2026-05-05 21:53 14.13398 100.83447 5576 ft 264 kts 173°
2026-05-05 21:53 14.11586 100.83635 5290 ft 258 kts 174°
2026-05-05 21:53 14.09815 100.83819 5028 ft 252 kts 174°
2026-05-05 21:53 14.08118 100.83995 4855 ft 243 kts 174°
2026-05-05 21:54 14.06449 100.84168 4716 ft 236 kts 174°
2026-05-05 21:54 14.04841 100.84336 4582 ft 228 kts 174°
2026-05-05 21:54 14.03301 100.84495 4449 ft 221 kts 174°
2026-05-05 21:54 14.01787 100.84563 4311 ft 215 kts 184°
2026-05-05 21:55 14.00301 100.84349 4193 ft 216 kts 191°
2026-05-05 21:55 13.98837 100.83991 4069 ft 216 kts 194°
2026-05-05 21:55 13.97379 100.83597 3959 ft 216 kts 194°
2026-05-05 21:55 13.95963 100.83208 3802 ft 210 kts 194°
2026-05-05 21:56 13.94573 100.82832 3696 ft 201 kts 194°
2026-05-05 21:56 13.93230 100.82470 3619 ft 198 kts 193°
2026-05-05 21:56 13.91913 100.82119 3505 ft 197 kts 193°
2026-05-05 21:56 13.90577 100.81763 3384 ft 197 kts 193°
2026-05-05 21:57 13.89244 100.81410 3257 ft 196 kts 193°
2026-05-05 21:57 13.87934 100.81063 3143 ft 196 kts 193°
2026-05-05 21:57 13.86610 100.80714 3023 ft 196 kts 193°
2026-05-05 21:57 13.85289 100.80365 2905 ft 195 kts 193°
2026-05-05 21:58 13.83979 100.80019 2778 ft 194 kts 193°
2026-05-05 21:58 13.82669 100.79672 2612 ft 194 kts 194°
2026-05-05 21:58 13.81379 100.79331 2366 ft 193 kts 194°
2026-05-05 21:58 13.80087 100.78989 2104 ft 188 kts 194°
2026-05-05 21:59 13.78840 100.78659 1864 ft 182 kts 194°
2026-05-05 21:59 13.77636 100.78341 1625 ft 172 kts 193°
2026-05-05 21:59 13.76512 100.78043 1400 ft 162 kts 193°
2026-05-05 21:59 13.75458 100.77765 1212 ft 153 kts 194°
2026-05-05 22:00 13.74426 100.77491 1025 ft 152 kts 193°
2026-05-05 22:00 13.73414 100.77225 848 ft 152 kts 193°
2026-05-05 22:00 13.72390 100.76952 649 ft 152 kts 192°
2026-05-05 22:00 13.71360 100.76669 470 ft 152 kts 191°
2026-05-05 22:01 13.70320 100.76411 281 ft 155 kts 192°
2026-05-05 22:01 13.69293 100.76132 121 ft 153 kts 192°
2026-05-05 22:01 13.68282 100.75871 22 ft 136 kts 195°
2026-05-05 22:01 13.67544 100.75677 20 ft 84 kts 194°
2026-05-05 22:02 13.67150 100.75573 21 ft 37 kts 194°
2026-05-05 22:02 13.66923 100.75513 22 ft 32 kts 197°
2026-05-05 22:02 13.66745 100.75417 23 ft 21 kts 217°
2026-05-05 22:02 13.66674 100.75354 23 ft 9 kts 224°
2026-05-05 22:03 13.66648 100.75295 21 ft 9 kts 281°
2026-05-05 22:03 13.66684 100.75265 22 ft 9 kts 354°
2026-05-05 22:03 13.66756 100.75278 22 ft 12 kts 14°
2026-05-05 22:03 13.66855 100.75304 21 ft 17 kts 14°
2026-05-05 22:04 13.66980 100.75337 21 ft 20 kts 14°
2026-05-05 22:04 13.67127 100.75375 21 ft 23 kts 14°
2026-05-05 22:04 13.67292 100.75419 22 ft 26 kts 14°
2026-05-05 22:04 13.67473 100.75466 22 ft 28 kts 14°
2026-05-05 22:05 13.67653 100.75513 22 ft 25 kts 14°
2026-05-05 22:05 13.67822 100.75558 23 ft 25 kts 14°
2026-05-05 22:05 13.67963 100.75595 21 ft 16 kts 14°
2026-05-05 22:05 13.68031 100.75614 21 ft 8 kts 14°
2026-05-05 22:06 13.68082 100.75612 22 ft 7 kts 335°
2026-05-05 22:06 13.68114 100.75573 21 ft 7 kts 306°
2026-05-05 22:06 13.68155 100.75549 22 ft 7 kts 355°
2026-05-05 22:06 13.68203 100.75554 25 ft 7 kts 356°
2026-05-05 22:07 13.68241 100.75531 23 ft 6 kts 304°
2026-05-05 22:07 13.68258 100.75483 23 ft 9 kts 285°
2026-05-05 22:07 13.68275 100.75418 23 ft 10 kts 284°
2026-05-05 22:07 13.68292 100.75348 22 ft 10 kts 284°
2026-05-05 22:08 13.68310 100.75277 21 ft 10 kts 284°
2026-05-05 22:08 13.68329 100.75203 21 ft 11 kts 284°
2026-05-05 22:08 13.68348 100.75125 24 ft 11 kts 284°
2026-05-05 22:08 13.68368 100.75044 22 ft 12 kts 285°
2026-05-05 22:09 13.68387 100.74970 22 ft 10 kts 284°
2026-05-05 22:09 13.68403 100.74904 23 ft 7 kts 284°
2026-05-05 22:09 13.68416 100.74856 23 ft 6 kts 285°
2026-05-05 22:09 13.68412 100.74822 22 ft 4 kts 227°
2026-05-05 22:10 13.68384 100.74808 24 ft 4 kts 195°
2026-05-05 22:10 13.68355 100.74800 23 ft 4 kts 194°
2026-05-05 22:10 13.68343 100.74797 22 ft 0 kts 194°